Miscellaneous Local Product
Issued by NWS North Platte, NE

Home | Current Version | Previous Version | Graphics & Text | Print | Product List | Glossary On
Versions: 1 2 3 4 5 6 7 8 9 10 11 12 13 14 15 16 17 18 19 20 21 22 23 24 25 26 27 28 29 30 31 32 33 34 35 36 37 38 39 40 41 42 43 44 45 46 47 48 49 50
818
AXUS43 KLBF 071410
MISLBF


WESTERN AND NORTH CENTRAL NEBRASKA HOURLY WEATHER ROUNDUP
NATIONAL WEATHER SERVICE NORTH PLATTE NE
800 AM CST SUN FEB 07 2016

NOTE: "FAIR" INDICATES FEW OR NO CLOUDS BELOW 12,000 FEET WITH NO
SIGNIFICANT WEATHER AND/OR OBSTRUCTIONS TO VISIBILITY.

NOTE: STATIONS NOT REPORTING VARIABLES SUCH AS SKY/WEATHER OR
PRESSURE ARE PROVIDED BY THE NEBRASKA DEPARTMENT OF
ROADS...RAWS...AND APRS NETWORKS...AND ARE NOT UNDER
NATIONAL WEATHER SERVICE QUALITY CONTROL.

...OBSERVATIONS IN AND NEAR THE EASTERN PANHANDLE OF NEBRASKA...

CITY           SKY/WX    TMP DP  RH WIND       PRES   REMARKS
PINE RIDGE     PTCLDY    31  20  63 NW7       30.15R WCI  24
CHADRON        CLOUDY    34  19  54 W15       30.19R WCI  24
ALLIANCE       CLOUDY    31  21  66 NW22G28   30.17R WCI  18
SIDNEY         CLOUDY    29  22  75 NW23G30   30.22R WCI  15
BIG SPRINGS      N/A     33  25  73 W8          N/A  WCI  26
$$

...OBSERVATIONS IN NORTH CENTRAL NEBRASKA...

CITY           SKY/WX    TMP DP  RH WIND       PRES   REMARKS
VALENTINE      MOCLDY    35  20  54 W17       30.07R WCI  25
THEDFORD       CLOUDY    37  24  59 NW14      30.10R WCI  28
AINSWORTH      PTCLDY    36  22  56 W17G26    30.06R WCI  26
O`NEILL        CLOUDY    37  25  62 NW22G29   30.02R WCI  26
ORD            PTCLDY    37  23  56 W18       30.05R WCI  27
BROKEN BOW     CLOUDY    36  24  62 NW16      30.08R WCI  26
BUTTE            N/A     35  28  75 W20G26      N/A  WCI  24
CHAMBERS         N/A     33  22  63 W6G17       N/A  WCI  27
EWING            N/A     35  27  71 W12G18      N/A  WCI  27
$$

...OBSERVATIONS IN SOUTHWEST NEBRASKA AND FAR NORTHEAST COLORADO...

CITY           SKY/WX    TMP DP  RH WIND       PRES   REMARKS
WRAY           FAIR      24  16  70 NW12      30.21R WCI  13
HOLYOKE        FAIR      32  21  64 NW16      30.20R WCI  21
IMPERIAL       CLOUDY    32  19  58 NW17G25   30.19R WCI  21
OGALLALA       CLOUDY    33  22  65 NW13      30.19R WCI  24
NORTH PLATTE   CLOUDY    32  23  69 NW14      30.14R WCI  22
MCCOOK         CLOUDY    31  21  66 W12       30.16R WCI  22
LEXINGTON      CLOUDY    31  24  73 W13       30.12R WCI  21
PAXTON           N/A     33  27  77 W8          N/A  WCI  26
STAPLETON        N/A     34  25  70 CALM        N/A
GOTHENBURG       N/A     32  22  68 W6          N/A  WCI  26
CALLAWAY         N/A     37  23  58 NW18        N/A  WCI  27
$$

...OBSERVATIONS IN CENTRAL LINCOLN COUNTY AREA...

CITY           SKY/WX    TMP DP  RH WIND       PRES   REMARKS
N.P. AIRPORT   CLOUDY    32  23  69 NW14      30.14R WCI  22
N.P. DOWNTOWN    N/A     32  25  74 CALM        N/A
N.P. SOUTHEAST   N/A     33  24  70 NW3         N/A
N.P. HILLCREST   N/A     34  25  69 NW12        N/A  WCI  25
$$

...SOME OBSERVATIONS FROM AROUND THE REGION...

CITY           SKY/WX    TMP DP  RH WIND       PRES   REMARKS
DENVER         CLOUDY    34  15  46 W9        30.19R WCI  27
LARAMIE        CLEAR     24  15  68 W22       30.18R WCI   9
CHEYENNE       CLEAR     25  17  72 N13       30.19R WCI  14
SCOTTSBLUFF    CLOUDY    31  24  75 NW14      30.24S WCI  21
RAPID CITY     CLEAR     34  10  37 NW38G48   30.11R WCI  19
BISMARCK       FLURRIES  35  28  75 W21G39    29.80R WCI  24
PIERRE         CLEAR     35  21  56 W26G36    29.92F WCI  22
WINNER         FAIR      35  22  58 W18G29    30.01R WCI  24
SIOUX FALLS    CLOUDY    35  26  69 W21G28    29.84F WCI  24
OMAHA          CLOUDY    38  25  59 NW17      29.96R WCI  28
GRAND ISLAND   CLEAR     31  22  69 W10       30.08R WCI  22
KANSAS CITY    CLOUDY    37  28  70 W7        30.01R WCI  32
WICHITA        CLOUDY    39  27  62 N8        30.08F WCI  33
OKLAHOMA CITY  PTCLDY    31  26  82 SW6       30.15R WCI  25
LIBERAL        CLOUDY    27  18  69 NW8       30.20R WCI  18
HAYS           CLOUDY    36  21  55 NW12      30.15R WCI  27
GOODLAND       CLEAR     26  15  63 NW14      30.19R WCI  14
$$




USA.gov is the U.S. government's official web portal to all federal, state and local government web resources and services.